Regional Weather Roundup
Issued by NWS

Home | Current Version | Previous Version | Text Only | Print | Product List | Glossary Off
Versions: 1 2 3 4 5 6 7 8 9 10 11 12 13 14 15 16 17 18 19 20 21 22 23 24 25 26 27 28 29 30 31 32 33 34 35 36 37 38 39 40 41 42 43 44 45 46 47 48 49 50

000
ASUS43 KDTX 181601
RWRMI
MICHIGAN HOURLY REGIONAL WEATHER ROUNDUP
NATIONAL WEATHER SERVICE DETROIT/PONTIAC MI
1200 PM EDT WED OCT 18 2017

NOTE: "FAIR" INDICATES FEW OR NO CLOUDS BELOW 12,000 FEET WITH NO
SIGNIFICANT WEATHER AND/OR OBSTRUCTION TO VISIBILITY.

MIZ047>049-052>055-059>063-066>070-074>076-081>083-181700-
SOUTHEAST LOWER MICHIGAN

CITY           SKY/WX    TMP DP  RH WIND       PRES   REMARKS
ADRIAN         SUNNY     60  43  53 SW13      30.27S
ALMA           SUNNY     63  40  44 SW14G22   30.17F
ANN ARBOR      SUNNY     62  44  51 S10       30.24F
BAD AXE        SUNNY     63  40  43 SW16G22   30.17F
CARO           SUNNY     65  41  42 SW12G17   30.17F
DETROIT CITY   SUNNY     62  43  49 S10       30.26S
DETROIT        SUNNY     63  44  50 SW10      30.27S
GROSSE ILE     SUNNY     60  49  65 S10       30.26S
HILLSDALE      SUNNY     61  41  48 SW14      30.24R
HOWELL         SUNNY     62  42  46 SW12G18   30.22S

CITY           SKY/WX    TMP DP  RH WIND       PRES   REMARKS
JACKSON        SUNNY     61  42  49 SW14      30.23S
LAMBERTVILLE   SUNNY     65  44  47 S8        30.26F
LANSING        SUNNY     63  41  44 SW16      30.20F
LAPEER         FAIR      63  42  47 SW10      30.21F
MASON          SUNNY     63  41  44 SW7       30.22S
MONROE         SUNNY     64  41  42 SW12      30.26S
MT. CLEMENS    SUNNY     64  44  46 S12       30.23F
PONTIAC        SUNNY     61  43  51 S12       30.22F
PORT HOPE        N/A     64  44  48 VRB7      30.14F
PORT HURON     SUNNY     64  43  45 S8G17     30.23F
TRI CITIES     SUNNY     63  43  48 SW16G25   30.16F
MIDLAND        FAIR      63  43  48 SW10G18   30.14F
TROY           SUNNY     62  41  45 SW9       30.26S
SAGINAW HB     SUNNY     63  41  45 SW16      30.16F
$$
MIZ043>046-050>051-056>058-064>065-071>073-077>080-181700-
SOUTHWEST LOWER MICHIGAN

CITY           SKY/WX    TMP DP  RH WIND       PRES   REMARKS
BATTLE CREEK   SUNNY    N/A N/A N/A SW15      30.21F
BENTON HARBOR  SUNNY     62  43  49 S12G20    30.18F
BIG RAPIDS     SUNNY     62  46  55 S9G17     30.12S
COLDWATER      SUNNY     62  39  41 SW15G22   30.23S
FREMONT        FAIR      63  52  66 S16       30.12S
HOLLAND        SUNNY     63  43  48 SW18      30.16F
GRAND RAPIDS   SUNNY     63  43  48 SW16      30.16F
IONIA          FAIR      64  40  41 S12       30.16F
KALAMAZOO      SUNNY     62  43  49 S15       30.21F
LUDINGTON      SUNNY     63  50  62 S16G24    30.06F
MARSHALL       SUNNY     61  42  49 SW15      30.21F
MOUNT PLEASANT SUNNY     64  42  43 S10       30.14S
MUSKEGON       SUNNY     63  52  67 S16G25    30.14S
SOUTH HAVEN    SUNNY     64  41  43 S9        30.17F
$$
MIZ016>042-181700-
NORTHERN LOWER MICHIGAN

CITY           SKY/WX    TMP DP  RH WIND       PRES   REMARKS
ALPENA         SUNNY     65  50  58 SW10      30.06F
BEAVER ISLAND  SUNNY     63  51  65 SW22G33   29.96F
BELLAIRE       SUNNY     65  47  52 S8        30.02F
CADILLAC       SUNNY     65  45  47 SW18      30.07F
CHARLEVOIX     SUNNY     65  48  55 S12G20    30.02F
FRANKFORT      SUNNY     65  50  57 S17G28    30.01F
GAYLORD        SUNNY     63  46  54 SW15G23   30.04F
GRAYLING       SUNNY     63  46  54 SW10G17   30.07F
HARBOR SPRINGS SUNNY     64  46  52 SW13G23   30.00F
HOUGHTON LAKE  SUNNY     62  48  60 SW10      30.10F
MANISTEE       SUNNY     65  50  58 S15G24    30.03F
OSCODA         SUNNY     63  45  52 SW16G26   30.10F
PELLSTON       SUNNY     65  48  54 S14G20    30.00F
ROGERS CITY    SUNNY     64  48  56 SW6       30.03F
TRAVERSE CITY  SUNNY     66  48  52 S8G20     30.00F
$$
MIZ007>008-015-181700-
EASTERN UPPER MICHIGAN

CITY           SKY/WX    TMP DP  RH WIND       PRES   REMARKS
KINROSS        SUNNY     63  50  62 SW10G21   29.97F
MACKINAC ISLAN SUNNY     64  47  55 SW10G17   29.98S
NEWBERRY       SUNNY     62  53  72 S21G26    29.93F
S. S. MARIE    SUNNY     63  51  65 S12       29.96F
MUNISING         N/A     65  50  58 S9G22     29.87S
$$
MIZ004>006-011>014-085-181700-
CENTRAL UPPER MICHIGAN

CITY           SKY/WX    TMP DP  RH WIND       PRES   REMARKS
MANISTIQUE     SUNNY     61  52  73 S15G23    29.95S
ESCANABA       SUNNY     60  51  72 S17G23    29.92F
MENOMINEE      SUNNY     61  48  62 SW14      29.95S
SAWYER-GWINN   SUNNY     59  46  63 S15G24    29.88S
$$
MIZ001>003-009>011-084-181700-
WESTERN UPPER MICHIGAN

CITY           SKY/WX    TMP DP  RH WIND       PRES   REMARKS
IRON MOUNTAIN  SUNNY     63  46  54 S9        29.88F
HOUGHTON       CLOUDY    63  45  51 S15       29.73F
COPPER HARBOR    N/A     62  45  53 SW17G32   29.71F
IRONWOOD       SUNNY     64  45  49 S17G30    29.74F
$$

ABBREVIATIONS USED IN REMARKS
   TC - TEMPERATURE IN CELSIUS
  WCI - WIND CHILL INDEX
   HX - HEAT INDEX
  VSB - VISIBILITY





USA.gov is the U.S. government's official web portal to all federal, state and local government web resources and services.